Location: Ammerl�gen
(47.2167°N, 9.6000°E)
Time: 19:31:14
(UTC+00:00)

DMSP 5D-2 F13 DEB - Pass Details

Date: 25 October 2021
Orbit: 758 x 780 km, 98.7° (Epoch: 03 December)

Event Time Altitude Azimuth Distance (km) Brightness Sun altitude
Exits shadow 18:51:42 39° 10° (N) 1,128 ? -27.0°
Drops below altitude 10° 18:55:00 10° 352° (N) 2,301 ? -27.5°
Sets 18:57:20 0° 349° (N) 3,230 ? -27.9°
